STARLINK-33941 (63765 NORAD) Tracking and Keplerian Element Data

This shows tracking and keplerian element data for the satellite.

Feedback or suggestion? Click here.




ElementValue
Catalog63765
NameSTARLINK-33941
Epoch Orbit3673
Epoch Day353.83892281
Epoch Year2025
RAAN136.3445
Inclination42.9998
Eccentricity0.0001752
Argument of Perigee273.8331
Mean Anonmoly86.2321
Mean Motion15.27586993
Decay Rate0.00017691
L11 63765U 25089Q 25353.83892281 .00017691 00000+0 65071-3 0 9995
L22 63765 42.9998 136.3445 0001752 273.8331 86.2321 15.27586993 36734



Live tracking and technical data element details for STARLINK-33941 (NORAD 63765). STARLINK-33941 can be tracked NOW for your location showing map with azimuth and elevation plus other details from your city location.







IsCatalogInMostPopularTable: catalog: 63765, numindb: 10
Update: records affected: 1



GetName: 63765 STARLINK-33941

Hit Count: updated at: Tue, 21 Apr 2026 20:31:03 GMT